Weather History for MMCP - March, 2013

Change the Weather History Date:

Wednesday, March 6, 2013

  Actual Average Record
Temperature  
Mean Temperature 72 °F -  
Max Temperature 83 °F 88 °F 100 °F (2003)
Min Temperature 61 °F 69 °F 55 °F (2007)
Cooling Degree Days 7    
Growing Degree Days 22 (Base 50)    
Moisture  
Dew Point 64 °F    
Average Humidity 71    
Maximum Humidity 90    
Minimum Humidity 54    
Precipitation  
Precipitation 0.00 in - - ()
Sea Level Pressure  
Sea Level Pressure 30.13 in    
Wind  
Wind Speed 5 mph ()    
Max Wind Speed 16 mph    
Max Gust Speed 23 mph    
Visibility 6.4 miles    
Events      
Averages and records for this station are not official NWS values.
T = Trace of Precipitation, MM = Missing Value Source: Averaged Metar Reports

Daily Weather History Graph

Daily Weather History Graph

Search for Another Location

Airport or City:

Trip Planner

Search our weather history database for the weather conditions in past years. The results will help you decide how hot, cold, wet, or windy it might be!

Date:

Astronomy

Mar. 06, 2013 Rise Set
Actual Time 6:17 AM CST 6:08 PM CST
Civil Twilight 5:55 AM CST 6:31 PM CST
Nautical Twilight 5:30 AM CST 6:56 PM CST
Astronomical Twilight 5:04 AM CST 7:22 PM CST
Moon 1:54 AM CST (3/6) 1:21 PM CST (3/6)
Length of Visible Light 12h 35m
Length of Day
11h 51m
Waning Crescent, 29% of the Moon is Illuminated
Mar 6
Waning Crescent
Mar 11
New
Mar 19
First Quarter
Mar 27
Full
Apr 2
Last Quarter

Hourly Weather History & Observations

Time (CST) Temp. Heat Index Dew Point Humidity Pressure Visibility Wind Dir Wind Speed Gust Speed Precip Events Conditions
2:50 AM 65 °F - 62 °F 85% 30.05 in 4 mi Calm Calm - -  
5:15 AM 66.2 °F - 60.8 °F 83% 30.09 in 7.0 mi Calm Calm - N/A   Clear
5:45 AM 66.2 °F - 60.8 °F 83% 30.09 in 7.0 mi Calm Calm - N/A   Clear
5:50 AM 63 °F - 61 °F 90% 30.10 in 4 mi Calm Calm - -  
6:43 AM 64.4 °F - 60.8 °F 88% 30.12 in 7.0 mi Calm Calm - N/A   Scattered Clouds
7:54 AM 66.2 °F - 62.6 °F 88% 30.16 in 7.0 mi Calm Calm - N/A   Scattered Clouds
8:50 AM 78 °F - 66 °F 59% 30.17 in 6 mi East 2.2 mph - -  
8:54 AM 75.2 °F - 64.4 °F 69% 30.18 in 7.0 mi ESE 6.9 mph - N/A   Scattered Clouds
9:00 AM - - - N/A% - - North - - N/A   Unknown
9:42 AM 80.6 °F 81.8 °F 62.6 °F 54% 30.18 in 7.0 mi ESE 5.8 mph - N/A   Scattered Clouds
10:46 AM 77.0 °F - 64.4 °F 65% 30.18 in 7.0 mi West 11.5 mph - N/A   Scattered Clouds
11:45 AM 80 °F - 67 °F 57% 30.16 in 6 mi West 4.5 mph - -  
11:45 AM 75.2 °F - 64.4 °F 69% 30.17 in 7.0 mi WNW 16.1 mph - N/A   Scattered Clouds
12:47 PM 77.0 °F - 64.4 °F 65% 30.13 in 7.0 mi WNW 11.5 mph - N/A   Scattered Clouds
1:42 PM 77.0 °F - 62.6 °F 61% 30.10 in 7.0 mi West 11.5 mph 23.0 mph N/A   Scattered Clouds
2:42 PM 77.0 °F - 64.4 °F 65% 30.10 in 7.0 mi West 11.5 mph 23.0 mph N/A   Scattered Clouds
2:48 PM 80 °F - 66 °F 54% 30.10 in 6 mi West 4.5 mph - -  
3:40 PM - - - N/A% 30.08 in 7.0 mi West 11.5 mph 23.0 mph N/A   Scattered Clouds
4:42 PM 75.2 °F - 68.0 °F 78% 30.09 in 7.0 mi WNW 11.5 mph 23.0 mph N/A   Scattered Clouds
5:42 PM 73.4 °F - 68.0 °F 83% 30.10 in 7.0 mi North 11.5 mph 23.0 mph N/A   Clear
5:48 PM 75 °F - 67 °F 69% 30.10 in 6 mi WNW 4.5 mph - -  
6:41 PM 75.2 °F - 66.2 °F 73% 30.12 in 7.0 mi North 11.5 mph - N/A   Clear
7:41 PM 75.2 °F - 66.2 °F 73% 30.13 in 7.0 mi North 11.5 mph - N/A   Clear
8:41 PM 73.4 °F - 64.4 °F 73% 30.15 in 7.0 mi North 11.5 mph - N/A   Clear
8:50 PM 74 °F - 63 °F 61% 30.16 in 4 mi North 4.5 mph - -  
9:40 PM 71.6 °F - 62.6 °F 73% 30.16 in 7.0 mi North 11.5 mph - N/A   Clear
10:40 PM 71.6 °F - 62.6 °F 73% 30.16 in 7.0 mi North 11.5 mph - N/A   Clear
11:47 PM 69 °F - 60 °F 67% 30.16 in 4 mi ENE 4.5 mph - -